Regional Weather Roundup
Issued by NWS Glasgow, MT

Home | Current Version | Previous Version | Text Only | Print | Product List | Glossary On
Versions: 1 2 3 4 5 6 7 8 9 10 11 12 13 14 15 16 17 18 19 20 21 22 23 24 25 26 27 28 29 30 31 32 33 34 35 36 37 38 39 40 41 42 43 44 45 46 47 48 49 50
000
ASUS45 KGGW 260415
RWRGGW
HOURLY WEATHER ROUNDUP FOR NORTHEAST MONTANA
NATIONAL WEATHER SERVICE GLASGOW MONTANA
1000 PM MDT MON MAY 25 2015

NOTE: "FAIR" INDICATES FEW OR NO CLOUDS BELOW 12,000 FEET WITH NO
SIGNIFICANT WEATHER AND/OR OBSTRUCTIONS TO VISISBILITY.

NORTHEAST MONTANA


CITY           SKY/WX    TMP DP  RH WIND       PRES   REMARKS
GLASGOW        CLEAR     58  46  64 SE9       29.87R
WOLF POINT     PTCLDY    60  47  61 S3        29.89R
JORDAN           N/A     57  50  77 E6        29.89R
WINNETT          N/A     58  48  69 S3          N/A
SIDNEY         MOCLDY    55  46  71 CALM      29.89S
GLENDIVE       PTCLDY    55  46  71 SE7       29.92S
MALTA            N/A     64  48  56 S9          N/A
SCOBEY           N/A     57  42  57 CALM      29.89S

FORT PECK REPORTS


CITY           SKY/WX    TMP DP  RH WIND       PRES   REMARKS
FORT PECK        N/A     62  48  60 SE13        N/A
THE PINES        N/A     61  47  59 S7          N/A

SOUTHEAST MONTANA


CITY           SKY/WX    TMP DP  RH WIND       PRES   REMARKS
BILLINGS       PTCLDY    60  45  57 S9        29.90R
MILES CITY     MOCLDY    58  51  78 SE3       29.89R
BAKER          CLEAR     50  48  93 SE6       29.94R
LIVINGSTON     CLEAR     56  44  64 SE7       29.88R

CENTRAL MONTANA


CITY           SKY/WX    TMP DP  RH WIND       PRES   REMARKS
HAVRE          CLEAR     58  44  60 E9        29.83R
LEWISTOWN      PTCLDY    56  45  66 E9        29.89R
GREAT FALLS    CLOUDY    56  48  74 W22G31    29.89R THUNDER
CUT BANK       CLOUDY    52  48  86 NW5       29.88R
HELENA         CLOUDY    59  46  62 NW9       29.89R
BUTTE          CLOUDY    51  41  68 NW8       29.96R
BOZEMAN        MOCLDY    59  42  53 W13       29.90R

WESTERN MONTANA


CITY           SKY/WX    TMP DP  RH WIND       PRES   REMARKS
MISSOULA       CLOUDY    54  47  77 CALM      29.95R
KALISPELL      NOT AVBL

NORTH DAKOTA


CITY           SKY/WX    TMP DP  RH WIND       PRES   REMARKS
WILLISTON      PTCLDY    59  49  69 CALM      29.88S
DICKINSON      CLEAR     50  45  83 W8        29.90R
MINOT          CLEAR     63  45  51 SW9       29.82R
BISMARCK       CLEAR     60  53  77 W12       29.87R

SOUTHERN SASKATCHEWAN


CITY           SKY/WX    TMP DP  RH WIND       PRES   REMARKS
REGINA         PTCLDY    66  39  37 E6        29.84
ESTEVAN        MOCLDY    64  46  52 W9        29.86R
SWIFT CURRENT  PTCLDY    63  34  34 SE6       29.86R



USA.gov is the U.S. government's official web portal to all federal, state and local government web resources and services.